User: anonymous
Location: Raven Hill Discovery Center
(45.1336°N, 85.0553°W)
Time: 18:48:04
(UTC-04:00)
Language:

Cosmos 1470 - Orbit

View from above orbital plane
View from above orbital plane
View from above satellite
View from above satellite

Ground track
Ground track

The orbit data is extracted from the following two-line orbital elements,

1 14147U 83061A   14292.73247599  .00005521  00000-0  36277-3 0  1150
2 14147 082.5025 270.6998 0014931 032.6706 327.5443 15.07337799458257
Epoch (UTC): 19 October 2014 17:34:45
Eccentricity: 0.0014931
inclination: 82.5025°
perigee height: 534 km
apogee height: 554 km
right ascension of ascending node: 270.6998°
argument of perigee: 32.6706°
revolutions per day: 15.07337799
mean anomaly at epoch: 327.5443°
orbit number at epoch: 45825

The dashed part of the orbit path shows where the satellite is in the earth's shadow,  

DLR